Location: Davayat
(45.9471°N, 3.1105°E)
Time: 13:32:12
(UTC+00:00)

Meteor 1-11 Rocket - Pass Details

Date: 01 December 2020
Orbit: 831 x 915 km, 81.2° (Epoch: 27 January)

Event Time Altitude Azimuth Distance (km) Brightness Sun altitude
Rises 17:33:06 0° 356° (N) 3,473 6.8 -15.0°
Reaches altitude 10° 17:35:48 10° 6° (N) 2,544 6.0 -15.4°
Maximum altitude 17:40:58 32° 69° (ENE) 1,483 4.4 -16.3°
Drops below altitude 10° 17:46:10 10° 132° (SE) 2,576 5.9 -17.1°
Sets 17:48:55 0° 142° (SE) 3,522 6.7 -17.6°
